Вернуться в каталог

COSMOS 1016

АктивенНавигацияLEO
NORAD 10933·PAYLOAD·🇷🇺 Russia

Запущен Jun 7, 1978 с Plesetsk Cosmodrome

Loading…

Ближайшие Пролёты (ближайшие 24 часа)

TLE

СвежийSource: Space-Track

Эпоха: Sep 14, 2026, 09:56 UTC

1 10933U 78056D   26257.41422881 -.00000030  00000-0 -10058-3 0  9996
2 10933  74.0262  51.3468 0017291 215.6321 172.3182 12.45304729194337

Отслеживайте COSMOS 1016 в реальном времени с AllMySat

Download on the App Store